Date String (YYYY-MM-DD hh:mm:ss) UTC,Instrument flags,Ambient pressure (hPa),Sample flow (lpm),Bypass flow (lpm),Sample temperature (°C),Ambient temperature (°C),ASC tube jacket temperature (°C),LED temperature (°C),Box temperature (°C),Sample RH (%),Span deviation,Mass concentration (μg/m³),Mass concentration (μg/m³),Mass concentration (μg/m³)
DateTimeUTC,F1_M11,P_M11,Q1_M11,Q2_M11,T1_M11,T2_M11,T3_M11,T4_M11,T5_M11,U1_M11,ZSPAN_M11,X0_M11,X2_M11,X1_M11
2021-10-05 07:00:00,,0832.0,5.00,0.00,29.9,26.8,00.0,39.3,31.3,10.8,0000.0,0012.86,0004.05,0003.28
2021-10-05 07:01:00,,0832.0,4.99,0.00,29.9,27.2,00.0,39.2,31.3,10.9,0000.0,0012.88,0004.06,0003.27
2021-10-05 07:02:00,,0832.1,5.01,0.00,29.9,27.6,00.0,39.2,31.4,11.0,0000.0,0012.18,0004.03,0003.26
2021-10-05 07:03:00,,0832.1,4.99,0.00,29.9,27.9,00.0,39.2,31.4,10.9,0000.0,0011.12,0004.04,0003.25
2021-10-05 07:04:00,,0832.1,5.01,0.00,29.9,28.1,00.0,39.1,31.5,10.9,0000.0,0011.04,0004.06,0003.26
2021-10-05 07:05:00,,0832.1,5.01,0.00,29.9,28.2,00.0,39.1,31.5,10.9,0000.0,0009.94,0004.00,0003.26
2021-10-05 07:06:00,,0832.1,4.99,0.00,29.9,28.4,00.0,39.1,31.6,10.9,0000.0,0009.41,0004.02,0003.27
2021-10-05 07:07:00,,0832.1,5.00,0.00,29.9,28.5,00.0,39.1,31.6,11.0,0000.0,0008.57,0004.00,0003.27
2021-10-05 07:08:00,,0832.1,5.00,0.00,29.9,28.6,00.0,39.1,31.6,11.0,0000.0,0008.32,0003.98,0003.27
2021-10-05 07:09:00,,0832.1,5.00,0.00,29.9,28.7,00.0,39.1,31.6,11.0,0000.0,0007.81,0003.98,0003.27
2021-10-05 07:10:00,,0832.1,5.01,0.00,29.9,28.8,00.0,39.1,31.7,11.0,0000.0,0007.50,0003.92,0003.27
2021-10-05 07:11:00,,0832.1,4.99,0.00,29.9,28.8,00.0,39.1,31.7,11.0,0000.0,0007.64,0003.89,0003.28
2021-10-05 07:12:00,,0832.1,5.00,0.00,29.9,28.9,00.0,39.1,31.7,11.0,0000.0,0008.01,0003.89,0003.28
2021-10-05 07:13:00,,0832.0,5.00,0.00,30.0,29.0,00.0,39.1,31.7,11.0,0000.0,0008.02,0003.88,0003.29
2021-10-05 07:14:00,,0832.1,5.01,0.00,30.0,29.0,00.0,39.1,31.8,11.0,0000.0,0008.04,0003.87,0003.30
2021-10-05 07:15:00,,0832.1,4.98,0.00,30.0,29.1,00.0,39.1,31.7,11.0,0000.0,0008.28,0003.89,0003.30
2021-10-05 07:16:00,,0832.1,5.01,0.00,30.0,29.1,00.0,39.1,31.8,11.0,0000.0,0009.03,0003.95,0003.31
2021-10-05 07:17:00,,0832.0,4.99,0.00,30.0,29.1,00.0,39.1,31.8,10.9,0000.0,0009.85,0003.99,0003.32
2021-10-05 07:18:00,,0832.1,4.99,0.00,30.0,29.2,00.0,39.1,31.8,11.2,0000.5,0010.52,0004.02,0003.31
2021-10-05 07:19:00,,0832.1,5.01,0.00,30.1,29.2,00.0,39.1,31.8,11.2,0000.0,0010.54,0004.03,0003.32
2021-10-05 07:20:00,,0832.1,5.00,0.00,30.1,29.2,00.0,39.1,31.9,11.1,0000.0,0010.48,0004.02,0003.34
2021-10-05 07:21:00,,0832.1,4.99,0.00,30.1,29.2,00.0,39.2,31.9,11.3,0000.0,0011.35,0004.06,0003.35
2021-10-05 07:22:00,,0832.1,5.01,0.00,30.1,29.3,00.0,39.2,31.9,11.4,0000.6,0011.45,0004.09,0003.36
2021-10-05 07:23:00,,0832.1,5.00,0.00,30.1,29.3,00.0,39.2,31.9,11.5,0001.1,0011.43,0004.15,0003.38
2021-10-05 07:24:00,,0832.1,5.00,0.00,30.1,29.3,00.0,39.2,31.9,11.6,0001.9,0011.69,0004.21,0003.40
2021-10-05 07:25:00,,0832.1,5.00,0.00,30.2,29.3,00.0,39.2,32.0,11.2,0000.7,0011.99,0004.27,0003.41
2021-10-05 07:26:00,,0832.1,5.01,0.00,30.2,29.3,00.0,39.2,32.0,11.1,0000.0,0011.58,0004.24,0003.42
2021-10-05 07:27:00,,0832.0,4.99,0.00,30.2,29.3,00.0,39.2,32.0,10.9,0000.0,0011.04,0004.22,0003.42
2021-10-05 07:28:00,,0832.1,5.01,0.00,30.2,29.3,00.0,39.2,32.0,10.8,0000.0,0010.37,0004.21,0003.42
2021-10-05 07:29:00,,0832.1,4.99,0.00,30.2,29.4,00.0,39.3,32.0,10.7,0000.0,0009.97,0004.22,0003.42
2021-10-05 07:30:00,,0832.1,4.99,0.00,30.2,29.4,00.0,39.3,32.0,10.7,0000.0,0010.30,0004.21,0003.42
2021-10-05 07:31:00,,0832.1,5.00,0.00,30.2,29.4,00.0,39.3,32.0,10.6,0000.0,0010.84,0004.21,0003.41
2021-10-05 07:32:00,,0832.1,4.99,0.00,30.3,29.4,00.0,39.3,32.0,10.5,0000.0,0010.06,0004.17,0003.40
2021-10-05 07:33:00,,0832.1,4.98,0.00,30.3,29.4,00.0,39.3,32.0,10.5,0000.0,0009.82,0004.14,0003.37
2021-10-05 07:34:00,,0832.1,5.00,0.00,30.3,29.4,00.0,39.3,32.0,10.6,0000.0,0009.86,0004.09,0003.35
2021-10-05 07:35:00,,0832.1,5.00,0.00,30.3,29.4,00.0,39.3,32.0,10.6,0000.0,0010.00,0004.08,0003.33
2021-10-05 07:36:00,,0832.1,4.99,0.00,30.3,29.4,00.0,39.3,32.0,10.4,0000.0,0009.73,0004.01,0003.32
2021-10-05 07:37:00,,0832.1,5.01,0.00,30.3,29.4,00.0,39.4,32.0,10.4,0000.0,0009.99,0004.03,0003.31
2021-10-05 07:38:00,,0832.1,5.00,0.00,30.3,29.4,00.0,39.4,32.0,10.5,0000.0,0010.20,0004.04,0003.30
2021-10-05 07:39:00,,0832.0,5.00,0.00,30.3,29.4,00.0,39.4,32.0,10.5,0000.0,0010.28,0004.00,0003.28
2021-10-05 07:40:00,,0832.0,5.01,0.00,30.3,29.4,00.0,39.4,32.0,10.4,0000.0,0010.26,0004.01,0003.28
2021-10-05 07:41:00,,0832.0,4.99,0.00,30.3,29.4,00.0,39.4,32.0,10.3,0000.0,0010.02,0004.04,0003.27
2021-10-05 07:42:00,,0832.0,5.00,0.00,30.3,29.4,00.0,39.4,32.0,10.3,0000.0,0009.42,0004.03,0003.27
2021-10-05 07:43:00,,0832.0,5.00,0.00,30.3,29.4,00.0,39.4,32.0,10.5,0000.0,0009.33,0004.03,0003.26
2021-10-05 07:44:00,,0832.0,5.00,0.00,30.3,29.4,00.0,39.4,32.0,10.4,0000.0,0009.31,0004.04,0003.27
2021-10-05 07:45:00,,0832.0,5.01,0.00,30.3,29.4,00.0,39.4,32.0,10.3,0000.0,0009.09,0004.03,0003.27
2021-10-05 07:46:00,,0832.0,5.00,0.00,30.3,29.4,00.0,39.4,32.1,10.3,0000.0,0008.62,0004.02,0003.26
2021-10-05 07:47:00,,0832.0,5.01,0.00,30.3,29.4,00.0,39.4,32.1,10.2,0000.0,0008.71,0004.00,0003.25
2021-10-05 07:48:00,,0832.1,5.00,0.00,30.3,29.4,00.0,39.4,32.1,10.2,0000.0,0008.39,0003.96,0003.24
2021-10-05 07:49:00,,0832.1,4.99,0.00,30.3,29.4,00.0,39.4,32.1,10.3,0000.0,0008.23,0003.93,0003.24
2021-10-05 07:50:00,,0832.1,5.00,0.00,30.3,29.4,00.0,39.4,32.1,10.3,0000.0,0008.60,0003.93,0003.24
2021-10-05 07:51:00,,0832.0,5.00,0.00,30.3,29.4,00.0,39.5,32.1,10.3,0000.0,0008.43,0003.89,0003.24
2021-10-05 07:52:00,,0832.1,5.01,0.00,30.3,29.4,00.0,39.5,32.1,10.3,0000.0,0008.16,0003.82,0003.24
2021-10-05 07:53:00,,0832.1,5.00,0.00,30.3,29.4,00.0,39.5,32.0,10.3,0000.0,0008.17,0003.85,0003.25
2021-10-05 07:54:00,,0832.1,4.99,0.00,30.3,29.4,00.0,39.4,32.0,10.3,0000.0,0008.31,0003.84,0003.25
2021-10-05 07:55:00,,0832.1,5.01,0.00,30.3,29.4,00.0,39.4,32.0,10.4,0000.0,0008.47,0003.84,0003.24
2021-10-05 07:56:00,,0832.1,5.00,0.00,30.3,29.4,00.0,39.4,32.0,10.5,0000.0,0008.50,0003.85,0003.25
2021-10-05 07:57:00,,0832.1,4.98,0.00,30.3,29.4,00.0,39.5,32.0,10.7,0000.0,0008.39,0003.82,0003.26
2021-10-05 07:58:00,,0832.1,5.02,0.00,30.3,29.4,00.0,39.5,32.0,10.5,0000.0,0008.35,0003.85,0003.26
2021-10-05 07:59:00,,0832.1,4.99,0.00,30.3,29.4,00.0,39.4,32.0,10.6,0000.0,0008.82,0003.90,0003.26
